Weather History for KAOH - October, 2012

Change the Weather History Date:

Sunday, October 14, 2012

  Actual Average Record
Temperature  
Mean Temperature 64 °F -  
Max Temperature 72 °F - - ()
Min Temperature 55 °F - - ()
Degree Days  
Heating Degree Days 1    
Growing Degree Days 14 (Base 50)    
Moisture  
Dew Point 57 °F    
Average Humidity 73    
Maximum Humidity 84    
Minimum Humidity 61    
Precipitation  
Precipitation 0.03 in - - ()
Sea Level Pressure  
Sea Level Pressure 29.77 in    
Wind  
Wind Speed 18 mph (SSW)    
Max Wind Speed 31 mph    
Max Gust Speed 43 mph    
Visibility 10 miles    
Events Rain    
T = Trace of Precipitation, MM = Missing Value Source: NWS Daily Summary

Daily Weather History Graph

Daily Weather History Graph

Search for Another Location

Airport or City:

Trip Planner

Search our weather history database for the weather conditions in past years. The results will help you decide how hot, cold, wet, or windy it might be!

Date:

Astronomy

Oct. 14, 2012 Rise Set
Actual Time 7:46 AM EDT 6:56 PM EDT
Civil Twilight 7:19 AM EDT 7:24 PM EDT
Nautical Twilight 6:47 AM EDT 7:55 PM EDT
Astronomical Twilight 6:15 AM EDT 8:27 PM EDT
Moon 6:44 AM EDT (10/14) 6:15 PM EDT (10/14)
Length of Visible Light 12h 04m
Length of Day
11h 09m
Waning Crescent, 1% of the Moon is Illuminated
Oct 14
Waning Crescent
Oct 15
New
Oct 21
First Quarter
Oct 29
Full
Nov 6
Last Quarter

Hourly Weather History & Observations

Time (EDT) Temp. Dew Point Humidity Pressure Visibility Wind Dir Wind Speed Gust Speed Precip Events Conditions
1:53 AM 66.9 °F 60.1 °F 79% 29.94 in 9.0 mi SSW 16.1 mph 21.9 mph N/A   Scattered Clouds
2:53 AM 66.9 °F 60.1 °F 79% 29.93 in 10.0 mi South 15.0 mph 21.9 mph N/A   Mostly Cloudy
3:53 AM 66.0 °F 59.0 °F 78% 29.92 in 10.0 mi South 11.5 mph - N/A   Scattered Clouds
4:53 AM 64.9 °F 57.9 °F 78% 29.92 in 10.0 mi South 12.7 mph - N/A   Scattered Clouds
5:53 AM 64.9 °F 57.9 °F 78% 29.91 in 10.0 mi South 16.1 mph - N/A   Partly Cloudy
6:53 AM 64.9 °F 57.9 °F 78% 29.90 in 10.0 mi South 13.8 mph - N/A   Partly Cloudy
7:53 AM 64.9 °F 57.0 °F 75% 29.88 in 10.0 mi South 19.6 mph 26.5 mph N/A   Partly Cloudy
8:53 AM 66.0 °F 55.9 °F 70% 29.87 in 10.0 mi South 17.3 mph 29.9 mph N/A   Partly Cloudy
9:53 AM 64.9 °F 55.9 °F 73% 29.84 in 10.0 mi South 17.3 mph 26.5 mph N/A   Overcast
10:53 AM 68.0 °F 55.9 °F 65% 29.80 in 10.0 mi South 21.9 mph 31.1 mph N/A   Mostly Cloudy
11:13 AM 68.0 °F 55.4 °F 64% 29.80 in 10.0 mi South 21.9 mph 33.4 mph N/A   Mostly Cloudy
11:24 AM 68.0 °F 55.4 °F 64% 29.80 in 10.0 mi South 18.4 mph 35.7 mph N/A   Mostly Cloudy
11:53 AM 68.0 °F 55.9 °F 65% 29.77 in 10.0 mi South 23.0 mph 35.7 mph N/A   Scattered Clouds
12:53 PM 70.0 °F 55.9 °F 61% 29.75 in 10.0 mi SSW 25.3 mph 38.0 mph N/A   Mostly Cloudy
1:53 PM 71.1 °F 57.0 °F 61% 29.73 in 10.0 mi SSW 24.2 mph 40.3 mph N/A   Overcast
2:53 PM 68.0 °F 59.0 °F 73% 29.71 in 7.0 mi SSW 17.3 mph 25.3 mph 0.00 in Rain Light Rain
4:53 PM 68.0 °F 60.1 °F 76% 29.65 in 10.0 mi South 20.7 mph 29.9 mph N/A   Mostly Cloudy
5:53 PM 69.1 °F 60.1 °F 73% 29.62 in 10.0 mi South 13.8 mph 21.9 mph N/A   Partly Cloudy
6:53 PM 66.0 °F 59.0 °F 78% 29.61 in 10.0 mi South 11.5 mph 21.9 mph 0.00 in   Overcast
7:53 PM 66.9 °F 57.0 °F 70% 29.59 in 10.0 mi SSW 15.0 mph 24.2 mph N/A   Clear
8:53 PM 66.9 °F 54.0 °F 63% 29.58 in 10.0 mi SSW 17.3 mph 31.1 mph N/A   Mostly Cloudy
9:53 PM 62.1 °F 57.0 °F 84% 29.63 in 9.0 mi SW 23.0 mph 33.4 mph 0.03 in Rain Light Rain
10:49 PM 59.0 °F 53.6 °F 82% 29.67 in 10.0 mi West 31.1 mph 40.3 mph 0.00 in   Overcast
10:53 PM 57.9 °F 53.1 °F 84% 29.67 in 10.0 mi West 24.2 mph 40.3 mph 0.00 in   Overcast
11:53 PM 55.0 °F 48.9 °F 80% 29.71 in 10.0 mi West 29.9 mph 42.6 mph N/A   Overcast